Latest Weather Observations for Mount Keith

IDW60801

Issued at 8:05 pm WST Friday 24 October 2014 (issued every 30 minutes, with the page automatically refreshed every 10 minutes)

About weather observations | Map of weather stations | Latest weather observations for WA | Other Formats
Station Details ID: 512019 Name: MOUNT KEITH Lat: -27.29 Lon: 120.55 Height: 542.33 m
Data from the previous 72 hours. | See also: Recent months for locations in Western Australia
Date/Time
WST
Temp
°C
App
Temp
°C
Dew
Point
Rel
Hum
%
Delta-T
°C
Wind Press
QNH
hPa
Press
MSL
hPa
Rain
since 9 am
mm
Dir
 
Spd
km/h
Gust
km/h
Spd
kts
Gust
kts
24/08:00pm 27.4 24.0 3.8 22 12.1 WSW 11 11 6 6 1014.3 1011.7 0.0
24/07:30pm 28.8 25.2 2.9 19 13.2 WSW 11 13 6 7 1014.0 1011.4 0.0
24/07:00pm 30.0 25.8 1.5 16 14.3 WSW 13 17 7 9 1013.6 1011.0 0.0
24/06:30pm 31.8 27.7 0.0 13 15.8 W 11 15 6 8 1013.2 1010.6 0.0
24/06:00pm 33.5 28.1 -1.0 11 17.0 W 17 22 9 12 1012.7 1010.1 0.0
24/05:30pm 34.7 29.1 -0.1 11 17.5 NW 19 28 10 15 1012.5 1009.9 0.0
24/05:00pm 35.3 30.7 1.6 12 17.5 WNW 15 24 8 13 1012.3 1009.7 0.0
24/04:30pm 35.2 30.2 1.5 12 17.5 WNW 17 24 9 13 1012.3 1009.7 0.0
24/04:00pm 35.3 29.4 1.6 12 17.5 WNW 22 32 12 17 1012.3 1009.7 0.0
24/03:30pm 35.5 28.5 1.8 12 17.6 WNW 28 37 15 20 1012.6 1010.0 0.0
24/03:00pm 35.4 28.9 0.5 11 17.9 NNW 24 33 13 18 1012.9 1010.4 0.0
24/02:30pm 34.6 29.0 1.1 12 17.2 WNW 20 35 11 19 1013.2 1010.6 0.0
24/02:00pm 35.1 29.5 1.5 12 17.4 WNW 20 35 11 19 1013.6 1011.0 0.0
24/01:30pm 34.3 30.1 1.9 13 16.8 NNW 13 28 7 15 1013.8 1011.2 0.0
24/01:00pm 34.3 28.2 3.0 14 16.5 WNW 24 32 13 17 1014.3 1011.7 0.0
24/12:30pm 33.9 28.7 3.6 15 16.1 NNW 20 28 11 15 1014.8 1012.3 0.0
24/12:00pm 32.8 28.0 4.6 17 15.2 N 19 28 10 15 1015.3 1012.7 0.0
24/11:30am 31.4 27.7 4.2 18 14.4 NNE 13 24 7 13 1015.9 1013.3 0.0
24/11:00am 30.7 27.2 3.7 18 14.1 N 11 20 6 11 1016.2 1013.7 0.0
24/10:30am 29.8 25.6 3.7 19 13.6 E 15 20 8 11 1016.5 1014.0 0.0
24/10:00am 29.2 24.6 3.9 20 13.2 ENE 17 22 9 12 1016.7 1014.2 0.0
24/09:30am 28.6 24.6 4.8 22 12.5 E 15 20 8 11 1017.1 1014.5 0.0
24/09:00am 27.4 22.7 5.1 24 11.7 ESE 19 26 10 14 1017.3 1014.7 -
24/08:30am 26.0 21.1 5.0 26 10.9 ESE 20 26 11 14 1017.3 1014.7 -
24/08:00am 24.6 19.7 4.9 28 10.1 ESE 20 28 11 15 1017.1 1014.5 -
24/07:30am 23.7 18.3 4.6 29 9.7 ESE 22 28 12 15 1016.8 1014.3 -
24/07:00am 22.1 17.9 5.9 35 8.4 SE 17 20 9 11 1016.7 1014.2 -
24/06:30am 20.3 16.8 5.5 38 7.5 SE 13 19 7 10 1016.6 1014.1 -
24/06:00am 17.9 15.7 6.4 47 5.8 SE 7 9 4 5 1016.6 1014.1 -
24/05:30am 16.7 14.3 6.8 52 5.0 SSE 9 9 5 5 1016.5 1014.0 -
24/05:00am 16.8 14.6 6.0 49 5.4 SE 7 9 4 5 1016.5 1014.0 -
24/04:30am 17.7 14.9 5.3 44 6.2 SSE 9 13 5 7 1016.3 1013.8 -
24/04:00am 18.2 15.4 5.1 42 6.5 S 9 11 5 6 1015.8 1013.2 -
24/03:30am 19.0 16.1 4.7 39 7.1 S 9 13 5 7 1015.7 1013.1 -
24/03:00am 19.1 16.2 4.8 39 7.1 S 9 13 5 7 1015.5 1012.9 0.0
24/02:30am 19.3 16.0 4.3 37 7.4 S 11 13 6 7 1015.5 1012.9 -
24/02:00am 19.8 16.1 4.3 36 7.7 S 13 15 7 8 1015.6 1013.0 -
24/01:30am 20.1 16.7 3.8 34 8.0 S 11 13 6 7 1015.7 1013.1 -
24/01:00am 20.4 16.9 3.6 33 8.2 SSW 11 13 6 7 1016.0 1013.4 -
24/12:30am 20.7 17.3 3.9 33 8.3 SSW 11 13 6 7 1016.2 1013.7 -
24/12:00am 21.1 17.6 3.3 31 8.7 S 11 13 6 7 1016.3 1013.8 -
 
Date/Time
WST
Temp
°C
App
Temp
°C
Dew
Point
Rel
Hum
%
Delta-T
°C
Wind Press
QNH
hPa
Press
MSL
hPa
Rain
since 9 am
mm
Dir
 
Spd
km/h
Gust
km/h
Spd
kts
Gust
kts
23/11:30pm 21.8 18.2 3.0 29 9.2 SSW 11 15 6 8 1016.4 1013.9 -
23/11:00pm 21.1 18.5 4.2 33 8.4 S 7 9 4 5 1016.4 1013.9 -
23/10:30pm 22.0 18.9 3.6 30 9.1 S 9 11 5 6 1016.6 1014.1 -
23/10:00pm 23.2 20.4 3.2 27 9.9 S 7 9 4 5 1016.6 1014.1 -
23/09:30pm 24.1 20.9 2.9 25 10.5 S 9 13 5 7 1016.4 1013.9 -
23/09:00pm 25.0 20.5 2.4 23 11.2 SSW 15 19 8 10 1016.2 1013.7 0.0
23/08:30pm 25.3 21.6 2.1 22 11.4 SSW 11 15 6 8 1016.2 1013.7 -
23/08:00pm 26.0 22.2 2.0 21 11.8 SW 11 17 6 9 1015.9 1013.3 -
23/07:30pm 25.8 22.7 3.7 24 11.2 W 9 11 5 6 1015.7 1013.1 -
23/07:00pm 27.2 23.9 2.3 20 12.5 W 9 13 5 7 1015.3 1012.7 -
23/06:30pm 28.5 24.9 2.7 19 13.1 W 11 13 6 7 1014.8 1012.3 -
23/06:00pm 29.7 25.6 2.1 17 14.0 WNW 13 19 7 10 1014.4 1011.8 -
23/05:30pm 30.9 27.1 3.8 18 14.2 W 13 20 7 11 1014.0 1011.4 -
23/05:00pm 30.7 26.5 3.7 18 14.1 W 15 20 8 11 1013.8 1011.2 -
23/04:30pm 31.3 26.4 4.2 18 14.4 WNW 19 30 10 16 1013.8 1011.2 -
23/04:00pm 30.7 25.7 4.4 19 13.9 W 20 28 11 15 1013.7 1011.1 -
23/03:30pm 31.0 27.6 6.1 21 13.6 NW 13 26 7 14 1013.8 1011.2 -
23/03:00pm 30.4 25.9 6.3 22 13.2 WSW 19 24 10 13 1014.0 1011.4 -
23/02:30pm 30.7 26.1 6.6 22 13.2 W 20 33 11 18 1014.3 1011.7 -
23/02:00pm 29.9 25.9 6.5 23 12.8 WSW 17 22 9 12 1014.4 1011.8 -
23/01:30pm 29.7 25.9 7.6 25 12.3 WSW 17 26 9 14 1014.6 1012.1 -
23/01:00pm 28.9 24.0 6.9 25 12.0 W 22 33 12 18 1015.1 1012.5 -
23/12:30pm 27.6 24.6 7.5 28 11.0 WNW 13 20 7 11 1015.5 1012.9 -
23/12:00pm 27.0 24.9 8.4 31 10.3 SSW 9 19 5 10 1015.9 1013.3 -
23/11:30am 25.8 24.0 7.9 32 9.8 WNW 7 19 4 10 1016.3 1013.8 -
23/11:00am 25.2 23.1 8.2 34 9.3 W 9 17 5 9 1016.6 1014.1 -
23/10:30am 24.6 22.1 8.1 35 9.0 SW 11 20 6 11 1017.2 1014.6 -
23/10:00am 23.2 20.2 7.7 37 8.3 S 13 20 7 11 1017.6 1015.0 -
23/09:00am 22.4 19.1 8.1 40 7.7 SSW 15 24 8 13 1018.1 1015.6 0.0
23/08:30am 22.1 18.1 8.9 43 7.2 SSW 20 26 11 14 1018.1 1015.6 0.0
23/08:00am 21.7 17.9 8.9 44 7.0 S 19 28 10 15 1018.0 1015.5 0.0
23/07:30am 21.7 18.0 9.3 45 6.8 SSE 19 24 10 13 1017.8 1015.2 0.0
23/07:00am 21.3 17.6 9.5 47 6.5 S 19 24 10 13 1017.6 1015.0 0.0
23/06:30am 20.4 16.7 9.6 50 5.9 S 19 30 10 16 1017.4 1014.8 0.0
23/06:00am 19.7 17.3 9.9 53 5.4 S 13 17 7 9 1017.3 1014.7 0.0
23/05:30am 19.6 16.4 10.0 54 5.3 S 17 24 9 13 1016.9 1014.4 0.0
23/05:00am 20.1 14.3 9.4 50 5.8 SSW 30 39 16 21 1015.7 1013.1 0.0
23/04:30am 20.7 16.4 8.0 44 6.8 SW 20 26 11 14 1015.7 1013.1 0.0
23/04:00am 21.7 16.4 6.8 38 7.8 WSW 24 33 13 18 1015.4 1012.8 0.0
23/03:30am 22.4 17.9 7.0 37 8.1 WSW 20 28 11 15 1015.1 1012.5 0.0
23/03:00am 23.6 19.3 7.7 36 8.6 W 20 26 11 14 1014.9 1012.4 0.0
23/02:30am 23.9 19.7 7.5 35 8.8 W 19 26 10 14 1014.8 1012.3 0.0
23/02:00am 25.0 20.1 6.7 31 9.8 W 22 28 12 15 1014.6 1012.1 0.0
23/01:30am 25.6 21.0 6.3 29 10.3 WNW 20 28 11 15 1014.6 1012.1 0.0
23/01:00am 26.0 21.4 5.6 27 10.7 WNW 19 24 10 13 1014.9 1012.4 0.0
23/12:30am 26.1 21.9 5.7 27 10.8 WNW 17 20 9 11 1015.4 1012.8 0.0
23/12:00am 25.9 22.8 5.5 27 10.7 NW 11 17 6 9 1015.7 1013.1 0.0
 
Date/Time
WST
Temp
°C
App
Temp
°C
Dew
Point
Rel
Hum
%
Delta-T
°C
Wind Press
QNH
hPa
Press
MSL
hPa
Rain
since 9 am
mm
Dir
 
Spd
km/h
Gust
km/h
Spd
kts
Gust
kts
22/11:30pm 25.9 22.5 6.0 28 10.5 WNW 13 19 7 10 1016.1 1013.5 0.0
22/11:00pm 26.4 22.9 5.4 26 11.0 NW 13 19 7 10 1016.3 1013.8 0.0
22/10:30pm 27.0 22.1 5.3 25 11.4 W 20 26 11 14 1016.1 1013.5 0.0
22/10:00pm 26.2 22.9 6.3 28 10.6 W 13 17 7 9 1016.4 1013.9 0.0
22/09:30pm 26.2 22.9 6.3 28 10.6 NW 13 17 7 9 1016.9 1014.4 0.0
22/09:00pm 25.8 23.4 6.9 30 10.2 NW 9 11 5 6 1016.9 1014.4 0.0
22/08:30pm 26.5 23.9 6.0 27 10.9 NW 9 11 5 6 1016.9 1014.4 0.0
22/08:00pm 27.0 24.0 5.9 26 11.2 WNW 11 15 6 8 1016.8 1014.3 0.0
22/07:30pm 26.8 24.2 6.2 27 11.0 WNW 9 11 5 6 1016.6 1014.1 0.0
22/07:00pm 27.4 24.3 5.6 25 11.6 WNW 11 13 6 7 1016.5 1014.0 0.0
22/06:30pm 27.9 24.8 5.5 24 11.9 WNW 11 13 6 7 1016.3 1013.8 0.0
22/06:00pm 29.0 24.8 3.8 20 13.1 W 15 20 8 11 1016.2 1013.7 0.0
22/05:30pm 29.8 23.9 3.7 19 13.6 WNW 24 32 13 17 1015.9 1013.3 0.0
22/05:00pm 30.9 25.2 3.0 17 14.5 WNW 22 30 12 16 1015.6 1013.0 0.0
22/04:30pm 32.0 26.3 -0.9 12 16.1 NNW 19 28 10 15 1015.6 1013.0 0.0
22/04:00pm 32.6 25.8 -1.7 11 16.6 NNW 24 32 13 17 1015.4 1012.8 0.0
22/03:30pm 32.7 26.5 -0.4 12 16.4 NNW 22 35 12 19 1015.4 1012.8 0.0
22/03:00pm 33.1 26.4 -1.3 11 16.8 N 24 37 13 20 1015.5 1012.9 0.0
22/02:30pm 33.4 26.3 -1.0 11 17.0 NNW 26 39 14 21 1015.7 1013.1 0.0
22/02:00pm 33.0 25.9 -1.4 11 16.8 NNW 26 39 14 21 1016.0 1013.4 0.0
22/01:30pm 33.3 26.2 1.2 13 16.4 N 28 39 15 21 1016.2 1013.7 0.0
22/01:00pm 33.8 27.5 1.6 13 16.6 N 24 37 13 20 1016.7 1014.2 0.0
22/12:30pm 32.5 25.8 1.6 14 15.8 N 26 41 14 22 1017.2 1014.6 0.0
22/12:00pm 32.3 25.4 2.4 15 15.5 N 28 44 15 24 1017.7 1015.1 0.0
22/11:30am 31.0 23.8 3.1 17 14.5 NNE 30 44 16 24 1018.1 1015.6 0.0
22/11:00am 30.9 24.0 4.6 19 14.0 NNE 30 43 16 23 1018.6 1016.1 0.0
22/10:30am 29.9 22.6 4.5 20 13.4 NNE 32 43 17 23 1018.7 1016.2 0.0
22/10:00am 29.3 22.9 5.4 22 12.8 NE 28 35 15 19 1019.3 1016.7 0.0
22/09:30am 28.6 22.3 5.5 23 12.3 NNE 28 39 15 21 1019.6 1017.1 0.0
22/09:00am 27.6 21.2 5.2 24 11.8 ENE 28 35 15 19 1019.3 1016.7 -
22/08:30am 26.9 21.2 6.9 28 10.8 ENE 26 35 14 19 1019.1 1016.5 -
22/08:00am 24.6 19.4 7.3 33 9.3 ENE 24 32 13 17 1019.1 1016.5 -
22/07:30am 23.2 18.5 7.7 37 8.3 ENE 22 30 12 16 1019.1 1016.5 -
22/07:00am 22.0 18.9 8.9 43 7.1 ENE 15 24 8 13 1018.7 1016.2 -
22/06:30am 20.1 17.4 9.1 49 6.0 E 13 19 7 10 1018.8 1016.3 -
22/06:00am 18.2 16.1 9.8 58 4.6 E 11 13 6 7 1018.6 1016.1 -
22/05:30am 17.3 14.4 9.5 60 4.2 ESE 15 17 8 9 1018.1 1015.6 -
22/05:00am 16.4 14.2 9.3 63 3.8 ESE 11 13 6 7 1018.2 1015.7 -
22/04:30am 16.8 14.6 9.2 61 4.1 ESE 11 13 6 7 1018.1 1015.6 -
22/04:00am 17.8 15.6 9.2 57 4.6 SE 11 13 6 7 1018.0 1015.5 -
22/03:30am 17.9 16.1 9.5 58 4.5 ESE 9 11 5 6 1017.9 1015.4 -
22/03:00am 18.8 16.1 9.0 53 5.3 ESE 13 17 7 9 1017.8 1015.2 0.0
22/02:30am 19.2 16.2 9.4 53 5.3 E 15 19 8 10 1017.8 1015.2 -
22/02:00am 19.1 16.7 9.9 55 5.0 E 13 17 7 9 1017.9 1015.4 -
22/01:30am 19.5 17.1 10.0 54 5.2 ESE 13 17 7 9 1018.1 1015.6 -
22/01:00am 19.8 17.3 9.7 52 5.5 ESE 13 17 7 9 1018.3 1015.8 -
22/12:30am 20.6 18.0 9.2 48 6.2 ESE 13 19 7 10 1018.5 1016.0 -
22/12:00am 21.0 18.3 8.9 46 6.6 ESE 13 17 7 9 1018.8 1016.3 -
 
Date/Time
WST
Temp
°C
App
Temp
°C
Dew
Point
Rel
Hum
%
Delta-T
°C
Wind Press
QNH
hPa
Press
MSL
hPa
Rain
since 9 am
mm
Dir
 
Spd
km/h
Gust
km/h
Spd
kts
Gust
kts
21/11:30pm 21.2 19.3 9.1 46 6.6 SE 9 15 5 8 1019.2 1016.6 -
21/11:00pm 21.5 19.2 9.1 45 6.8 SE 11 15 6 8 1019.4 1016.8 -
21/10:30pm 21.9 19.2 8.8 43 7.1 SE 13 17 7 9 1019.4 1016.8 -
21/10:00pm 22.0 19.3 8.9 43 7.1 SE 13 15 7 8 1019.7 1017.2 -
21/09:30pm 22.8 19.9 8.1 39 7.9 SE 13 15 7 8 1020.1 1017.6 -
21/09:00pm 23.4 20.5 8.3 38 8.2 SE 13 17 7 9 1020.2 1017.7 0.0
21/08:30pm 24.0 20.7 8.0 36 8.7 SE 15 20 8 11 1020.1 1017.6 -

Other Formats:

Comma delimited format used in spreadsheet applications
http://www.bom.gov.au/fwo/IDW60801/IDW60801.99434.axf

JavaScript Object Notation format (JSON) in row-major order
http://www.bom.gov.au/fwo/IDW60801/IDW60801.99434.json